Weather History for KBKD - January, 2014

Change the Weather History Date:

Saturday, January 18, 2014

  Actual Average (KABI) Record (KABI)
Temperature  
Mean Temperature 54 °F 45 °F  
Max Temperature 69 °F 57 °F 81 °F (1964)
Min Temperature 38 °F 33 °F -2 °F (1930)
Degree Days  
Heating Degree Days 12 20  
Month to date heating degree days 370  
Since 1 July heating degree days 1415  
Cooling Degree Days 0 0  
Month to date cooling degree days 0  
Year to date cooling degree days 0  
Growing Degree Days 4 (Base 50)    
Moisture  
Dew Point 22 °F    
Average Humidity 32    
Maximum Humidity 46    
Minimum Humidity 18    
Precipitation  
Precipitation 0.00 in 0.03 in 1.19 in (1968)
Month to date precipitation 0.53  
Year to date precipitation 0.53  
Sea Level Pressure  
Sea Level Pressure 30.13 in    
Wind  
Wind Speed 9 mph (WSW)    
Max Wind Speed 17 mph    
Max Gust Speed 22 mph    
Visibility 10 miles    
Events      
T = Trace of Precipitation, MM = Missing Value Source: NWS Daily Summary

Daily Weather History Graph

Daily Weather History Graph

Search for Another Location

Airport or City:

Trip Planner

Search our weather history database for the weather conditions in past years. The results will help you decide how hot, cold, wet, or windy it might be!

Date:

Astronomy

Jan. 18, 2014 Rise Set
Actual Time 7:37 AM CST 5:55 PM CST
Civil Twilight 7:10 AM CST 6:21 PM CST
Nautical Twilight 6:40 AM CST 6:51 PM CST
Astronomical Twilight 6:11 AM CST 7:21 PM CST
Moon 8:27 PM CST (1/18) 8:47 AM CST (1/18)
Length of Visible Light 11h 11m
Length of Day
10h 18m
Waning Gibbous, 94% of the Moon is Illuminated
Jan 18
Waning Gibbous
Jan 23
Last Quarter
Jan 30
New
Feb 6
First Quarter
Feb 14
Full

Hourly Weather History & Observations

Time (CST) Temp. Windchill Dew Point Humidity Pressure Visibility Wind Dir Wind Speed Gust Speed Precip Events Conditions
12:10 AM 45.0 °F 39.7 °F 17.6 °F 33% 30.17 in 10.0 mi SSW 10.4 mph - N/A   Clear
12:30 AM 45.5 °F 40.3 °F 17.6 °F 33% 30.16 in 10.0 mi South 10.4 mph - N/A   Clear
12:50 AM 44.1 °F 39.0 °F 17.6 °F 35% 30.16 in 10.0 mi SSW 9.2 mph - N/A   Clear
1:10 AM 43.9 °F 38.8 °F 18.0 °F 35% 30.15 in 10.0 mi SSW 9.2 mph - N/A   Clear
1:30 AM 44.2 °F 38.8 °F 18.1 °F 35% 30.15 in 10.0 mi South 10.4 mph - N/A   Clear
1:50 AM 43.7 °F 39.1 °F 18.1 °F 36% 30.15 in 10.0 mi South 8.1 mph - N/A   Clear
2:10 AM 43.5 °F 39.4 °F 18.3 °F 36% 30.15 in 10.0 mi South 6.9 mph - N/A   Clear
2:30 AM 43.7 °F 38.1 °F 18.9 °F 37% 30.15 in 10.0 mi South 10.4 mph - N/A   Clear
2:50 AM 44.1 °F 38.1 °F 18.9 °F 37% 30.15 in 10.0 mi South 11.5 mph - N/A   Clear
3:10 AM 43.9 °F 38.3 °F 18.9 °F 37% 30.15 in 10.0 mi South 10.4 mph - N/A   Clear
3:30 AM 43.3 °F 38.6 °F 18.7 °F 37% 30.15 in 10.0 mi South 8.1 mph - N/A   Clear
3:50 AM 42.6 °F 37.8 °F 18.9 °F 39% 30.15 in 10.0 mi South 8.1 mph - N/A   Clear
4:10 AM 42.1 °F 36.6 °F 19.0 °F 40% 30.13 in 10.0 mi South 9.2 mph - N/A   Clear
4:30 AM 42.6 °F 36.8 °F 19.2 °F 39% 30.13 in 10.0 mi South 10.4 mph - N/A   Clear
4:50 AM 42.8 °F 37.5 °F 19.0 °F 39% 30.13 in 10.0 mi South 9.2 mph - N/A   Clear
5:10 AM 42.1 °F 37.1 °F 19.0 °F 40% 30.12 in 10.0 mi South 8.1 mph - N/A   Clear
5:30 AM 41.0 °F 35.2 °F 19.4 °F 42% 30.12 in 10.0 mi South 9.2 mph - N/A   Clear
5:50 AM 41.5 °F 36.4 °F 19.2 °F 41% 30.12 in 10.0 mi South 8.1 mph - N/A   Clear
6:10 AM 40.5 °F 36.5 °F 19.4 °F 43% 30.12 in 10.0 mi South 5.8 mph - N/A   Clear
6:30 AM 40.1 °F 36.1 °F 19.4 °F 43% 30.12 in 10.0 mi South 5.8 mph - N/A   Clear
6:50 AM 40.1 °F 36.9 °F 19.4 °F 43% 30.13 in 10.0 mi South 4.6 mph - N/A   Clear
7:10 AM 39.4 °F - 19.4 °F 45% 30.13 in 10.0 mi Calm Calm - N/A   Clear
7:30 AM 39.2 °F - 19.4 °F 45% 30.13 in 10.0 mi Calm Calm - N/A   Clear
7:50 AM 38.8 °F - 19.8 °F 46% 30.13 in 10.0 mi North - - N/A   Clear
8:10 AM 39.2 °F 34.2 °F 20.1 °F 46% 30.13 in 10.0 mi South 6.9 mph - N/A   Clear
8:30 AM 40.6 °F 38.6 °F 20.8 °F 45% 30.13 in 10.0 mi SSE 3.5 mph - N/A   Clear
8:50 AM 43.2 °F 40.5 °F 21.6 °F 42% 30.14 in 10.0 mi SW 4.6 mph - N/A   Clear
9:10 AM 48.4 °F - 21.0 °F 34% 30.15 in 10.0 mi SW 8.1 mph - N/A   Clear
9:30 AM 51.3 °F - 21.4 °F 31% 30.15 in 10.0 mi WSW 9.2 mph - N/A   Clear
9:50 AM 53.4 °F - 21.0 °F 28% 30.16 in 10.0 mi WSW 12.7 mph - N/A   Clear
10:10 AM 55.9 °F - 20.5 °F 25% 30.16 in 10.0 mi SW 16.1 mph 20.7 mph N/A   Clear
10:30 AM 57.4 °F - 20.5 °F 24% 30.16 in 10.0 mi SW 17.3 mph 21.9 mph N/A   Clear
10:50 AM 59.5 °F - 21.4 °F 23% 30.15 in 10.0 mi SW 11.5 mph - N/A   Clear
11:10 AM 61.0 °F - 22.6 °F 23% 30.14 in 10.0 mi WSW 13.8 mph - N/A   Clear
11:11 AM 60.8 °F - 23.0 °F 23% 30.14 in 10.0 mi WSW 13.8 mph - N/A   Clear
11:30 AM 61.7 °F - 22.8 °F 23% 30.13 in 10.0 mi WSW 13.8 mph - N/A   Clear
11:50 AM 63.1 °F - 23.5 °F 22% 30.12 in 10.0 mi WSW 11.5 mph - N/A   Clear
12:10 PM 64.9 °F - 24.4 °F 22% 30.11 in 10.0 mi WSW 8.1 mph - N/A   Clear
12:30 PM 66.2 °F - 24.8 °F 21% 30.10 in 10.0 mi WSW 10.4 mph - N/A   Clear
12:50 PM 66.9 °F - 24.4 °F 20% 30.08 in 10.0 mi WNW 8.1 mph - N/A   Clear
1:10 PM 67.5 °F - 24.4 °F 20% 30.08 in 10.0 mi WNW 10.4 mph - N/A   Clear
1:30 PM 68.0 °F - 24.6 °F 19% 30.07 in 10.0 mi WNW 9.2 mph - N/A   Clear
1:50 PM 69.6 °F - 25.5 °F 19% 30.06 in 10.0 mi NW 6.9 mph - N/A   Clear
2:10 PM 69.3 °F - 25.5 °F 19% 30.06 in 10.0 mi NNW 11.5 mph 17.3 mph N/A   Clear
2:30 PM 68.5 °F - 26.2 °F 20% 30.06 in 10.0 mi NW 9.2 mph 18.4 mph N/A   Clear
2:50 PM 68.5 °F - 25.9 °F 20% 30.07 in 10.0 mi NNW 11.5 mph 17.3 mph N/A   Clear
3:10 PM 68.7 °F - 26.1 °F 20% 30.07 in 10.0 mi NNW 9.2 mph 16.1 mph N/A   Clear
3:30 PM 68.7 °F - 24.6 °F 19% 30.07 in 10.0 mi NW 9.2 mph - N/A   Clear
3:50 PM 68.5 °F - 24.8 °F 19% 30.08 in 10.0 mi NW 9.2 mph - N/A   Clear
4:15 PM 68.5 °F - 23.9 °F 19% 30.08 in 10.0 mi North - - N/A   Clear
4:35 PM 68.0 °F - 23.0 °F 18% 30.09 in 10.0 mi NNW 11.5 mph - N/A   Clear
4:55 PM 67.1 °F - 23.0 °F 19% 30.10 in 10.0 mi NNW 5.8 mph - N/A   Clear
5:15 PM 66.4 °F - 21.9 °F 18% 30.10 in 10.0 mi North - - N/A   Clear
5:35 PM 64.6 °F - 21.6 °F 19% 30.11 in 10.0 mi North - - N/A   Clear
5:55 PM 62.4 °F - 21.7 °F 21% 30.11 in 10.0 mi NNW 4.6 mph - N/A   Clear
6:10 PM 60.3 °F - 21.9 °F 23% 30.12 in 10.0 mi NW 3.5 mph - N/A   Clear
6:30 PM 57.9 °F - 22.5 °F 25% 30.12 in 10.0 mi West 3.5 mph - N/A   Clear
6:50 PM 54.7 °F - 23.0 °F 29% 30.12 in 10.0 mi West 4.6 mph - N/A   Clear
7:10 PM 53.2 °F - 23.0 °F 31% 30.13 in 10.0 mi West 4.6 mph - N/A   Clear
7:35 PM 52.7 °F - 23.0 °F 31% 30.14 in 10.0 mi WSW 4.6 mph - N/A   Clear
7:50 PM 50.9 °F - 23.0 °F 34% 30.15 in 10.0 mi WSW 4.6 mph - N/A   Clear
8:15 PM 52.0 °F - 22.6 °F 32% 30.15 in 10.0 mi West 3.5 mph - N/A   Clear
8:30 PM 50.5 °F - 22.6 °F 34% 30.16 in 10.0 mi West 3.5 mph - N/A   Clear
8:55 PM 48.6 °F - 22.8 °F 36% 30.18 in 10.0 mi WNW 3.5 mph - N/A   Clear
9:10 PM 47.7 °F - 23.0 °F 38% 30.18 in 10.0 mi NW 4.6 mph - N/A   Clear
9:30 PM 48.0 °F - 22.8 °F 37% 30.19 in 10.0 mi North 5.8 mph - N/A   Clear
9:50 PM 46.2 °F 43.3 °F 22.5 °F 39% 30.20 in 10.0 mi North 5.8 mph - N/A   Clear
10:10 PM 46.6 °F - 22.3 °F 38% 30.20 in 10.0 mi North 5.8 mph - N/A   Clear
10:30 PM 46.6 °F - 23.0 °F 39% 30.21 in 10.0 mi North 6.9 mph - N/A   Clear
10:55 PM 45.3 °F 41.1 °F 22.6 °F 41% 30.22 in 10.0 mi North 8.1 mph - N/A   Clear
11:10 PM 44.1 °F 42.5 °F 23.0 °F 43% 30.22 in 10.0 mi North 3.5 mph - N/A   Clear
11:35 PM 45.5 °F - 22.1 °F 40% 30.22 in 10.0 mi Calm Calm - N/A   Clear
11:50 PM 45.5 °F - 22.1 °F 40% 30.22 in 10.0 mi Calm Calm - N/A   Clear